Ridgedale, MO

7:55 PM CST on February 20, 2017 (GMT -0600)
Branson

Weather History for KBBG - May, 2013

Change the Weather History Date:

Thursday, May 2, 2013

  Actual Average (KHRO) Record (KHRO)
Temperature  
Mean Temperature 48 °F -  
Max Temperature 62 °F 70 °F 91 °F (1943)
Min Temperature 35 °F 49 °F 26 °F (1911)
Degree Days  
Heating Degree Days 16    
Moisture  
Dew Point 49 °F    
Average Humidity 91    
Maximum Humidity 100    
Minimum Humidity 72    
Precipitation  
Precipitation 0.13 in - - ()
Sea Level Pressure  
Sea Level Pressure 30.15 in    
Wind  
Wind Speed 6 mph (NW)    
Max Wind Speed 16 mph    
Max Gust Speed 22 mph    
Visibility 7 miles    
Events Rain    
Averages and records for this station are not official NWS values.
T = Trace of Precipitation, MM = Missing Value Source: NWS Daily Summary

Daily Weather History Graph

Daily Weather History Graph

Search for Another Location

Airport or City:

Trip Planner

Search our weather history database for the weather conditions in past years. The results will help you decide how hot, cold, wet, or windy it might be!

Date:

Astronomy

May. 02, 2013 Rise Set
Actual Time 6:17 AM CDT 8:02 PM CDT
Civil Twilight 5:50 AM CDT 8:29 PM CDT
Nautical Twilight 5:16 AM CDT 9:03 PM CDT
Astronomical Twilight 4:41 AM CDT 9:39 PM CDT
Moon 1:53 AM CDT (5/2) 1:03 PM CDT (5/2)
Length of Visible Light 14h 39m
Length of Day
13h 44m
Waning Gibbous, 47% of the Moon is Illuminated
May 2
Waning Gibbous
May 9
New
May 17
First Quarter
May 24
Full
May 31
Last Quarter

Hourly Weather History & Observations

Time (CDT) Temp. Windchill Dew Point Humidity Pressure Visibility Wind Dir Wind Speed Gust Speed Precip Events Conditions
12:15 AM 60.8 °F - 59.0 °F 94% 30.10 in 10.0 mi Calm Calm - N/A   Partly Cloudy
12:35 AM 60.8 °F - 59.0 °F 94% 30.09 in 10.0 mi SSE 3.5 mph - N/A   Scattered Clouds
12:55 AM 62.6 °F - 59.0 °F 88% 30.09 in 10.0 mi South 4.6 mph - N/A   Overcast
1:15 AM 62.6 °F - 59.0 °F 88% 30.09 in 10.0 mi Calm Calm - N/A   Overcast
1:35 AM 62.6 °F - 59.0 °F 88% 30.08 in 10.0 mi South 3.5 mph - N/A   Mostly Cloudy
2:15 AM 60.8 °F - 57.2 °F 88% 30.08 in 10.0 mi Calm Calm - N/A   Mostly Cloudy
2:35 AM 60.8 °F - 57.2 °F 88% 30.07 in 10.0 mi SSE 3.5 mph - N/A   Mostly Cloudy
2:55 AM 59.0 °F - 57.2 °F 94% 30.07 in 10.0 mi South 3.5 mph - N/A   Scattered Clouds
3:15 AM 59.0 °F - 57.2 °F 94% 30.07 in 10.0 mi Calm Calm - N/A   Mostly Cloudy
3:35 AM 59.0 °F - 57.2 °F 94% 30.08 in 10.0 mi Calm Calm - N/A   Mostly Cloudy
3:55 AM 60.8 °F - 57.2 °F 88% 30.10 in 4.0 mi WSW 3.5 mph - N/A   Mostly Cloudy
4:15 AM 59.0 °F - 57.2 °F 94% 30.11 in 5.0 mi WSW 3.5 mph - N/A   Overcast
4:35 AM 59.0 °F - 57.2 °F 94% 30.11 in 7.0 mi Calm Calm - N/A   Overcast
4:55 AM 59.0 °F - 57.2 °F 94% 30.12 in 8.0 mi Calm Calm - N/A   Mostly Cloudy
5:15 AM 59.0 °F - 57.2 °F 94% 30.11 in 10.0 mi Calm Calm - N/A   Overcast
5:35 AM 59.0 °F - 57.2 °F 94% 30.11 in 10.0 mi West 3.5 mph - N/A   Overcast
5:55 AM 59.0 °F - 57.2 °F 94% 30.13 in 10.0 mi WNW 4.6 mph - N/A   Overcast
6:15 AM 59.0 °F - 57.2 °F 94% 30.13 in 10.0 mi WNW 4.6 mph - N/A   Overcast
6:35 AM 57.2 °F - 57.2 °F 100% 30.14 in 9.0 mi NNW 9.2 mph - N/A   Overcast
6:45 AM 57.2 °F - 57.2 °F 100% 30.14 in 10.0 mi NW 11.5 mph - N/A   Overcast
7:45 AM 53.6 °F - 48.2 °F 82% 30.16 in 10.0 mi NW 12.7 mph - N/A   Mostly Cloudy
8:45 AM 53.6 °F - 48.2 °F 82% 30.18 in 10.0 mi NW 9.2 mph - N/A   Mostly Cloudy
9:50 AM 55.4 °F - 48.2 °F 77% 30.18 in 10.0 mi North 9.2 mph - N/A   Overcast
10:45 AM 55.4 °F - 48.2 °F 77% 30.18 in 10.0 mi NNW 10.4 mph - N/A   Overcast
11:46 AM 57.2 °F - 48.2 °F 72% 30.20 in 9.0 mi NNW 16.1 mph - N/A   Overcast
12:45 PM 53.6 °F - 46.4 °F 77% 30.19 in 9.0 mi NW 13.8 mph - N/A   Overcast
1:45 PM 53.6 °F - 44.6 °F 72% 30.19 in 8.0 mi NW 11.5 mph - N/A   Overcast
2:55 PM 50.0 °F - 46.4 °F 87% 30.19 in 2.0 mi NNW 12.7 mph - N/A Rain Light Rain
3:45 PM 48.2 °F - 46.4 °F 93% 30.19 in 2.0 mi NW 11.5 mph 20.7 mph N/A Rain Light Rain
4:46 PM 46.4 °F 40.1 °F 46.4 °F 100% 30.18 in 5.0 mi NW 15.0 mph - N/A   Overcast
5:48 PM 44.6 °F 38.1 °F 42.8 °F 93% 30.18 in 8.0 mi NW 13.8 mph 21.9 mph N/A Rain Light Rain
6:45 PM 42.8 °F 35.4 °F 39.2 °F 87% 30.18 in 9.0 mi NW 15.0 mph 21.9 mph N/A Rain Light Rain
7:45 PM 41.0 °F 34.7 °F 39.2 °F 93% 30.20 in 2.0 mi NW 10.4 mph 18.4 mph N/A Rain Light Rain
8:46 PM 39.2 °F 31.2 °F 37.4 °F 93% 30.21 in 5.0 mi NW 13.8 mph 17.3 mph N/A Rain Light Rain
9:15 PM 39.2 °F 31.6 °F 37.4 °F 93% 30.21 in 3.0 mi NW 12.7 mph 20.7 mph N/A Rain Light Rain
9:35 PM 39.2 °F 32.5 °F 37.4 °F 93% 30.22 in 2.0 mi NW 10.4 mph - N/A Rain Light Rain
9:55 PM 39.2 °F 32.0 °F 37.4 °F 93% 30.21 in 2.0 mi NW 11.5 mph 17.3 mph 0.03 in Rain Light Rain
10:15 PM 37.4 °F 29.3 °F 37.4 °F 100% 30.21 in 2.5 mi NW 12.7 mph 20.7 mph N/A Rain Light Rain
10:35 PM 37.4 °F 28.5 °F 37.4 °F 100% 30.20 in 3.0 mi NNW 15.0 mph 21.9 mph 0.01 in Rain Light Rain
10:55 PM 37.4 °F 29.3 °F 37.4 °F 100% 30.20 in 3.0 mi NW 12.7 mph 16.1 mph 0.02 in Rain Light Rain
11:15 PM 37.4 °F 28.9 °F 35.6 °F 93% 30.20 in 5.0 mi NW 13.8 mph 18.4 mph N/A Rain Light Rain
11:35 PM 35.6 °F 28.0 °F 35.6 °F 100% 30.19 in 2.5 mi NW 10.4 mph - 0.05 in Rain Rain
11:55 PM 35.6 °F 27.1 °F 33.8 °F 93% 30.20 in 3.0 mi NW 12.7 mph 18.4 mph 0.08 in Rain Light Rain